Home > Weather > Bridgeport > Past weeks

Flag for USA Weather for the Past 2 Weeks in Bridgeport, Connecticut, USA

Now
47 °F

Light rain. Mostly cloudy.


Feels Like: 41 °F
Forecast: 44 / 49 °F
Wind: 14 mph from East

Location: Sikorsky Memorial Airport

Current Time: May 1, 2016 at 4:28:39 PM

Latest Report: May 1, 2016 at 3:52 PM


Visibility: 4 mi

Pressure: 30.16 "Hg

Humidity: 83%

Dew Point: 42 °F

Location of BridgeportLocation

Historic Weather in Bridgeport — Graph

°F

Bridgeport Temperature Yesterday

Maximum temperature yesterday: 61 °F (at 4:52 PM)
Minimum temperature yesterday: 45 °F (at 1:52 AM)
Average temperature yesterday: 51 °F

High & Low Weather Summary for the Past Weeks

 TemperatureHumidityPressure
High74 °F (Apr 18, 3:52 PM)93% (Apr 23, 2:52 AM)30.46 "Hg (Apr 23, 2:52 AM)
Low40 °F (Apr 17, 5:52 AM)13% (Apr 16, 2:52 PM)29.68 "Hg (Apr 26, 12:03 PM)
Average54 °F58%30.06 "Hg
* Reported Apr 16 2:52 PM — May 1 2:52 PM, Bridgeport, Weather by CustomWeather, © 2016

Note: Actual official high and low records may vary slightly from our data, if they occured in-between our weather recording intervals... More about our weather records

Advertising

Bridgeport Weather History for the Previous 24 Hours

Scroll right to see more
 ConditionsComfort  
Time TempWeatherWind HumidityBarometerVisibility
2:52 PM
Sun, May 1
48 °FLight rain. Mostly cloudy.10 mph77%30.17 "Hg7 mi
2:01 PM49 °FLight rain. More clouds than sun.10 mph84%30.18 "Hg10 mi
12:52 PM50 °FLight rain. Overcast.8 mph83%30.19 "Hg10 mi
11:52 AM49 °FOvercast.10 mph80%30.22 "Hg10 mi
10:52 AM49 °FLight rain. Overcast.7 mph80%30.23 "Hg10 mi
9:52 AM48 °FLight rain. Mostly cloudy.10 mph77%30.24 "Hg9 mi
8:52 AM49 °FLight rain. Cloudy.6 mph77%30.24 "Hg10 mi
7:52 AM49 °FOvercast.9 mph69%30.23 "Hg10 mi
6:52 AM49 °FOvercast.9 mph69%30.21 "Hg10 mi
5:52 AM49 °FOvercast.5 mph71%30.22 "Hg10 mi
4:52 AM48 °FPassing clouds.5 mph71%30.22 "Hg10 mi
3:52 AM49 °FClear.3 mph66%30.21 "Hg10 mi
2:52 AM49 °FClear.No wind64%30.21 "Hg10 mi
1:52 AM49 °FClear.3 mph64%30.22 "Hg10 mi
12:52 AM49 °FClear.3 mph64%30.25 "Hg10 mi
11:52 PM
Sat, Apr 30
49 °FClear.3 mph66%30.25 "Hg10 mi
10:52 PM48 °FClear.6 mph68%30.26 "Hg10 mi
9:52 PM50 °FClear.7 mph66%30.26 "Hg10 mi
8:52 PM51 °FClear.8 mph61%30.25 "Hg10 mi
7:52 PM53 °FSunny.8 mph56%30.25 "Hg10 mi
6:52 PM55 °FSunny.10 mph57%30.22 "Hg10 mi
5:52 PM58 °FSunny.13 mph56%30.21 "Hg10 mi
4:52 PM61 °FSunny.14 mph48%30.20 "Hg10 mi
Weather by CustomWeather, © 2016

See weather overviewHow to use our weather pages